sat.trackr.live / text

‹ back to catalog

STARLINK-37465

NORAD 68847 · 2026-094J

PAYLOAD ACTIVE UNKNOWN

§ Identity

Operator
Country
US
Launch date
2026-04-26
Launch site
AFWTR
Launch vehicle
Mass (kg)
RCS (m²)

Purposes: comms

External: N2YO · Heavens-Above · Gunter

§ Orbital elements

Epoch: 2026-05-25T00:03:00.569088Z

Period
92.95 min
Inclination
97.2851°
Eccentricity
0.0001392
Mean motion
15.49233866 rev/d
Perigee alt
418.0 km
Apogee alt
419.9 km
Semi-major
6,797.1 km
B*
9.3951e-4
RAAN
159.5970°
Arg perigee
100.8167°
Mean anomaly
259.3241°
Rev number
448

§ Raw data

STARLINK-374651 68847U 26094J   26145.00208992  .00051422  00000+0  93951-3 0  99952 68847  97.2851 159.5970 0001392 100.8167 259.3241 15.49233866  4480

JSON: /api/v1/satellites/68847 · /tle

For live sub-satellite position, see the globe view (requires WebGL).

§ Visibility from observer

Set your observer location to see the next 7 days of passes ≥ 10°. The values pass through the URL so the page stays shareable.

No JS? Fill the form by hand. The geolocation button needs JavaScript.